Location: Caserta
(41.0670°N, 14.3330°E)
Time: 03:12:48
(UTC+02:00)

STARLINK-1341 - Pass Details

Date: 02 October 2020
Orbit: 549 x 550 km, 53.0° (Epoch: 20 October)

Event Time Altitude Azimuth Distance (km) Brightness Sun altitude
Exits shadow 04:22:55 27° 41° (NE) 1,063 5.5 -29.9°
Drops below altitude 10° 04:24:57 10° 48° (NE) 1,824 7.1 -29.5°
Sets 04:27:12 0° 51° (NE) 2,721 8.3 -29.1°
